Flag for U.S.A. Weather past 2 weeks in Montgomery, Alabama, U.S.A.

Now
77 °F

Sunny.


Feels Like: 79 °F
Forecast: 68 / 92 °F
Wind: 3 mph from North

Location: Maxwell Air Force Base / Montgomery

Current Time: Aug 28, 2014 at 8:55:23 PM

Latest Report: Aug 28, 2014 at 7:58 PM


Visibility: 10 mi

Pressure: 29.96 "Hg

Humidity: 74%

Dew point: 68 °F

Location of MontgomeryLocation

Historic Weather in Montgomery — Graph

°F

Montgomery temperature yesterday

Maximum temperature yesterday: 90 °F (at 3:58 PM)
Minimum temperature yesterday: 68 °F (at 5:58 AM)
Average temperature yesterday: 78 °F

Past Weeks' High & Low Weather Summary

 TemperatureHumidityPressure
High98 °F (Aug 23, 3:58 PM)100% (Aug 15, 12:58 AM)30.15 "Hg (Aug 15, 12:58 AM)
Low64 °F (Aug 15, 5:58 AM)32% (Aug 28, 4:58 PM)29.84 "Hg (Aug 24, 3:58 PM)
Average80 °F77%30.01 "Hg
* Reported Aug 13 7:58 PM — Aug 28 7:58 PM, Montgomery, Weather by CustomWeather, © 2014

Note: Actual official high and low records may vary slightly from our data, if they occured in-between our weather recording intervals... More about our weather records

Advertising

Montgomery weather history for previous 24 hours

 ConditionsComfort  
Time TempWeatherWind HumidityBarometerVisibility
7:58 PM
Aug 28
77 °FSunny.3 mph74%29.96 "Hg10 mi
6:58 PM84 °FSunny.5 mph51%29.95 "Hg10 mi
5:58 PM88 °FSunny.8 mph41%29.96 "Hg10 mi
4:58 PM92 °FSunny.7 mph32%29.96 "Hg10 mi
3:58 PM90 °FSunny.3 mph34%29.98 "Hg10 mi
2:58 PM89 °FSunny.2 mph37%29.99 "Hg10 mi
1:58 PM89 °FSunny.5 mph41%30.00 "Hg10 mi
12:58 PM89 °FPartly sunny.1 mph36%30.02 "Hg10 mi
11:58 AM90 °FSunny.5 mph39%30.03 "Hg10 mi
10:58 AM88 °FSunny.3 mph42%30.04 "Hg10 mi
9:58 AM82 °FSunny.2 mph59%30.05 "Hg10 mi
8:58 AM76 °FSunny.1 mph72%30.04 "Hg10 mi
7:58 AM72 °FSunny.No wind83%30.04 "Hg10 mi
6:58 AM68 °FClear.2 mph98%30.03 "Hg10 mi
5:58 AM68 °FClear.2 mph99%30.02 "Hg10 mi
4:58 AM68 °FClear.2 mph100%30.01 "Hg10 mi
3:58 AM70 °FClear.1 mph96%30.00 "Hg10 mi
2:58 AM70 °FClear.2 mph93%30.00 "Hg10 mi
1:58 AM71 °FClear.6 mph97%30.01 "Hg10 mi
12:58 AM71 °FClear.3 mph99%30.01 "Hg10 mi
11:58 PM
Aug 27
70 °FClear.3 mph100%30.02 "Hg10 mi
10:58 PM72 °FClear.2 mph96%30.02 "Hg10 mi
9:58 PM73 °FClear.3 mph93%30.01 "Hg10 mi
8:58 PM74 °FClear.No wind78%30.00 "Hg10 mi
Weather by CustomWeather, © 2014

See weather overviewHow to use our weather pages